CW5306 Weather Reports


Display with metric or nautical units.
time (UTC)temp
F
wind
direction
speed
MPH
gust
MPH
rain 1hr
in
rain 24hr
in
rain mn
in
humidity
%
barometer
mb
20260906212240 77 101 5.0 20.0 0.00 0.54 0.37 91 1010.7
20260906211739 77 94 9.0 20.0 0.00 0.54 0.37 92 1010.8
20260906211240 76 66 5.0 20.0 0.00 0.54 0.37 91 1010.8
20260906210740 76 165 12.0 19.0 0.00 0.54 0.37 92 1011.0
20260906210240 76 125 11.0 20.0 0.00 0.54 0.37 91 1010.9
20260906210010 76 93 7.0 21.0 0.01 0.54 0.37 91 1011.1
20260906205239 76 89 4.0 21.0 0.06 0.54 0.37 91 1011.1
20260906205010 76 82 8.0 20.0 0.09 0.54 0.37 91 1011.3
20260906204240 76 79 7.0 20.0 0.11 0.54 0.37 91 1011.3
20260906203740 76 104 6.0 15.0 0.11 0.54 0.37 91 1011.4
20260906203241 76 114 9.0 20.0 0.11 0.54 0.37 91 1011.4
20260906202740 76 120 9.0 20.0 0.11 0.54 0.37 91 1011.4
20260906202239 76 81 11.0 16.0 0.11 0.54 0.37 92 1011.3
20260906201739 76 114 4.0 16.0 0.11 0.54 0.37 92 1011.1
20260906201239 76 124 7.0 20.0 0.11 0.54 0.37 92 1011.1
20260906200740 76 91 8.0 20.0 0.11 0.54 0.37 92 1011.1
20260906200239 76 87 12.0 17.0 0.11 0.54 0.37 92 1011.1
20260906195741 75 127 6.0 11.0 0.10 0.52 0.36 92 1011.4
20260906195246 75 121 6.0 15.0 0.02 0.45 0.28 91 1011.5
20260906195240 75 123 5.0 14.0 0.06 0.48 0.32 91 1011.5
20260906194239 75 84 2.0 15.0 0.01 0.43 0.26 91 1011.6
20260906193741 75 122 10.0 16.0 0.01 0.43 0.26 92 1011.6
20260906193239 75 80 5.0 19.0 0.01 0.43 0.26 92 1011.4
20260906192739 75 76 6.0 19.0 0.01 0.43 0.26 92 1011.3
20260906192246 75 62 5.0 14.0 0.00 0.43 0.26 92 1011.4
20260906192240 75 50 6.0 17.0 0.01 0.43 0.26 91 1011.2
20260906191240 74 87 6.0 17.0 0.00 0.43 0.26 91 1011.2
20260906190739 75 83 8.0 23.0 0.01 0.43 0.26 92 1011.5
20260906190511 75 113 7.0 23.0 0.02 0.43 0.26 92 1011.4
20260906185740 75 76 10.0 23.0 0.02 0.43 0.26 92 1011.0
20260906185240 74 104 9.0 19.0 0.02 0.43 0.26 92 1011.2
20260906184739 75 94 11.0 21.0 0.02 0.43 0.26 92 1011.2
20260906184512 75 69 6.0 21.0 0.02 0.42 0.25 92 1011.1
20260906184010 75 115 9.0 15.0 0.02 0.42 0.25 92 1010.9
20260906183240 75 130 9.0 16.0 0.02 0.42 0.25 92 1010.9
20260906183011 75 128 8.0 16.0 0.02 0.42 0.25 92 1010.9
20260906182242 75 146 11.0 13.0 0.02 0.42 0.25 92 1011.1
20260906181739 74 120 5.0 11.0 0.02 0.42 0.25 91 1011.0
20260906181240 74 109 6.0 21.0 0.02 0.42 0.25 91 1010.9
20260906180745 75 104 13.0 24.0 0.00 0.41 0.24 90 1010.9
20260906180739 74 106 6.0 24.0 0.01 0.42 0.25 91 1010.8
20260906180010 76 83 16.0 24.0 0.00 0.41 0.24 91 1010.8
20260906175239 76 87 10.0 16.0 0.00 0.41 0.24 91 1010.7
20260906174741 75 77 10.0 14.0 0.00 0.41 0.24 91 1010.7
20260906174240 75 75 5.0 15.0 0.00 0.41 0.24 91 1010.5
20260906173802 75 92 9.0 19.0 0.01 0.41 0.24 92 1010.0
20260906173740 75 53 6.0 15.0 0.00 0.41 0.24 91 1010.3
20260906173532 75 92 9.0 19.0 0.01 0.41 0.24 92 1010.0
20260906173239 76 83 4.0 15.0 0.00 0.41 0.24 92 1010.3
20260906173030 75 92 9.0 19.0 0.01 0.41 0.24 92 1010.0
20260906172239 75 85 10.0 19.0 0.01 0.41 0.24 92 1010.2
20260906171728 75 61 8.0 16.0 0.01 0.41 0.24 92 1010.0
20260906171228 75 104 10.0 15.0 0.01 0.41 0.24 92 1010.2
20260906170717 75 67 6.0 14.0 0.01 0.41 0.24 92 1010.0
20260906170446 75 54 8.0 14.0 0.03 0.41 0.24 92 1010.1
20260906165716 75 112 9.0 14.0 0.04 0.41 0.24 92 1010.2
20260906165216 75 92 5.0 10.0 0.04 0.41 0.24 92 1009.9
20260906164715 75 95 5.0 13.0 0.04 0.41 0.24 92 1010.2
20260906164216 75 90 6.0 15.0 0.04 0.41 0.24 92 1010.0
20260906163934 75 98 5.0 16.0 0.04 0.40 0.24 92 1010.0
20260906163720 75 98 5.0 16.0 0.04 0.40 0.24 92 1010.0
20260906163204 75 90 6.0 16.0 0.04 0.40 0.23 92 1010.0
20260906162704 75 81 8.0 16.0 0.04 0.40 0.23 92 1010.1
20260906162434 75 84 7.0 14.0 0.04 0.40 0.23 92 1010.0
20260906161704 75 94 7.0 19.0 0.07 0.40 0.23 92 1009.7
20260906161203 75 65 6.0 19.0 0.10 0.39 0.22 92 1009.9
20260906160703 75 83 8.0 19.0 0.17 0.39 0.22 92 1010.0
20260906160204 75 93 4.0 19.0 0.15 0.37 0.20 92 1010.0
20260906155654 75 84 5.0 16.0 0.15 0.37 0.20 92 1009.8
20260906155152 75 64 9.0 19.0 0.15 0.37 0.20 92 1010.0
20260906154651 75 75 8.0 19.0 0.14 0.36 0.19 92 1010.0
20260906154200 75 86 7.0 16.0 0.14 0.36 0.19 92 1009.9
20260906154153 75 78 11.0 15.0 0.14 0.36 0.19 92 1010.0
20260906153940 75 86 7.0 16.0 0.14 0.36 0.19 92 1009.9
20260906153217 75 56 7.0 17.0 0.14 0.36 0.19 92 1009.9
20260906152651 75 58 10.0 17.0 0.14 0.36 0.19 91 1009.8
20260906152207 75 88 11.0 19.0 0.14 0.36 0.19 91 1009.8
20260906151651 75 72 8.0 19.0 0.11 0.33 0.16 91 1009.8
20260906151152 75 102 5.0 14.0 0.07 0.29 0.12 91 1009.7
20260906150652 75 133 7.0 10.0 0.01 0.22 0.05 90 1009.7
20260906150153 75 112 5.0 13.0 0.01 0.22 0.05 90 1009.6
20260906145652 75 176 5.0 13.0 0.01 0.22 0.05 90 1009.7
20260906145152 75 143 7.0 15.0 0.02 0.22 0.05 90 1009.7
20260906144923 75 158 8.0 15.0 0.04 0.22 0.05 90 1009.7
20260906144429 75 121 5.0 17.0 0.04 0.22 0.05 90 1009.9
20260906144216 75 121 5.0 17.0 0.04 0.22 0.05 90 1009.9
20260906144152 75 147 5.0 17.0 0.04 0.22 0.05 90 1009.6
20260906143152 75 131 5.0 19.0 0.04 0.22 0.05 90 1009.7
20260906142651 76 135 4.0 19.0 0.04 0.22 0.05 90 1009.4
20260906142152 76 84 7.0 16.0 0.04 0.22 0.05 90 1009.6
20260906141657 76 137 4.0 16.0 0.04 0.22 0.05 90 1009.5
20260906141651 76 130 7.0 14.0 0.04 0.22 0.05 90 1009.4
20260906141442 76 137 4.0 16.0 0.04 0.22 0.05 90 1009.5
20260906140653 76 67 12.0 16.0 0.03 0.21 0.04 90 1009.5
20260906140152 76 57 1.0 11.0 0.03 0.21 0.04 90 1009.5
20260906135652 76 155 4.0 14.0 0.03 0.21 0.04 89 1009.5
20260906135151 77 130 6.0 14.0 0.03 0.20 0.03 89 1009.5
20260906134651 77 107 10.0 14.0 0.01 0.18 0.01 89 1009.5
20260906134422 77 115 6.0 10.0 0.01 0.19 0.01 89 1009.7
20260906133925 77 130 6.0 10.0 0.01 0.19 0.01 89 1009.6
20260906133710 77 130 6.0 10.0 0.01 0.19 0.01 89 1009.6
20260906133423 77 142 5.0 9.0 0.01 0.19 0.01 89 1009.5
20260906132652 77 108 6.0 11.0 0.01 0.19 0.01 89 1009.6
20260906132159 76 120 7.0 13.0 0.01 0.19 0.01 89 1009.7
20260906132153 76 145 4.0 11.0 0.01 0.19 0.01 89 1009.7
20260906131942 76 120 7.0 13.0 0.01 0.19 0.01 89 1009.7
20260906131152 77 130 4.0 13.0 0.01 0.19 0.01 89 1009.7
20260906130932 77 105 6.0 19.0 0.01 0.19 0.01 88 1009.8
20260906130654 77 112 8.0 13.0 0.01 0.19 0.01 88 1009.6
20260906125923 78 145 6.0 20.0 0.01 0.19 0.01 87 1009.8
20260906125152 78 109 6.0 20.0 0.00 0.18 0.00 86 1009.8
20260906124652 78 58 4.0 20.0 0.00 0.18 0.00 85 1009.6
20260906124140 78 84 8.0 15.0 0.00 0.18 0.00 86 1009.8
20260906123640 78 75 6.0 17.0 0.00 0.18 0.00 86 1009.9
20260906123140 78 83 5.0 17.0 0.00 0.18 0.00 86 1010.1
20260906122640 78 121 6.0 15.0 0.00 0.18 0.00 86 1010.1
20260906122140 78 73 8.0 15.0 0.00 0.18 0.00 86 1009.9
20260906121640 78 83 8.0 17.0 0.00 0.18 0.00 86 1010.1
20260906121139 78 103 10.0 17.0 0.00 0.18 0.00 85 1010.1
20260906120627 78 112 9.0 15.0 0.00 0.18 0.00 86 1009.9
20260906120127 78 79 4.0 15.0 0.00 0.18 0.00 86 1010.1
20260906115629 78 71 10.0 15.0 0.00 0.18 0.00 85 1010.2
20260906115359 78 88 8.0 13.0 0.00 0.18 0.00 85 1010.0
20260906114628 78 124 6.0 19.0 0.00 0.18 0.00 85 1010.2
20260906114358 78 93 7.0 19.0 0.00 0.18 0.00 85 1010.1
20260906113859 78 67 9.0 16.0 0.00 0.18 0.00 85 1010.2
20260906113115 78 78 10.0 16.0 0.00 0.18 0.00 85 1010.2
20260906112617 78 72 6.0 15.0 0.00 0.18 0.00 85 1010.2
20260906112115 78 101 5.0 15.0 0.00 0.18 0.00 85 1010.7
20260906111616 78 87 9.0 15.0 0.00 0.18 0.00 85 1010.8
20260906111346 78 103 5.0 15.0 0.00 0.18 0.00 85 1010.6
20260906110615 78 81 6.0 15.0 0.00 0.18 0.00 85 1011.0
20260906110115 78 72 4.0 16.0 0.00 0.18 0.00 85 1011.0
20260906105603 78 89 7.0 16.0 0.00 0.18 0.00 85 1010.6
20260906105335 78 106 6.0 16.0 0.00 0.18 0.00 85 1011.0
20260906104556 78 64 7.0 14.0 0.00 0.18 0.00 85 1010.9
20260906104052 78 66 6.0 15.0 0.00 0.18 0.00 85 1010.9
20260906103614 78 107 8.0 15.0 0.00 0.18 0.00 85 1011.2
20260906103323 78 105 7.0 14.0 0.00 0.18 0.00 85 1011.3
20260906102601 78 85 6.0 13.0 0.00 0.18 0.00 85 1011.2
20260906102054 78 141 4.0 15.0 0.00 0.18 0.00 85 1011.3
20260906101553 78 123 4.0 15.0 0.00 0.18 0.00 85 1011.3
20260906101310 78 62 6.0 16.0 0.00 0.18 0.00 85 1011.4
20260906100541 78 92 10.0 16.0 0.00 0.18 0.00 84 1011.3
20260906100040 78 80 8.0 15.0 0.00 0.18 0.00 85 1011.3
20260906095539 78 113 4.0 15.0 0.00 0.18 0.18 85 1011.2
20260906095039 78 127 9.0 15.0 0.00 0.18 0.18 84 1011.5
20260906094540 78 92 6.0 14.0 0.00 0.18 0.18 84 1011.5
20260906094039 78 64 7.0 14.0 0.00 0.18 0.18 84 1011.6
20260906093540 78 60 10.0 14.0 0.00 0.18 0.18 84 1011.8
20260906093039 78 52 7.0 14.0 0.00 0.18 0.18 84 1011.7
20260906092810 78 96 8.0 13.0 0.00 0.18 0.18 84 1011.6
20260906092040 78 73 5.0 14.0 0.00 0.18 0.18 84 1011.2
20260906091540 78 89 5.0 14.0 0.00 0.18 0.18 84 1011.5
20260906091311 78 83 4.0 20.0 0.00 0.18 0.18 84 1011.8
20260906090528 78 83 6.0 20.0 0.00 0.18 0.18 84 1011.9
20260906090027 78 94 6.0 14.0 0.00 0.18 0.18 84 1012.0
20260906085758 78 79 11.0 14.0 0.00 0.18 0.18 85 1011.9
20260906085028 78 129 4.0 13.0 0.00 0.18 0.18 85 1011.9
20260906084529 78 96 9.0 13.0 0.00 0.18 0.18 84 1011.9
20260906084028 78 70 5.0 13.0 0.00 0.18 0.18 84 1012.2
20260906083759 78 74 4.0 14.0 0.00 0.18 0.18 85 1012.0
20260906083027 78 101 6.0 14.0 0.00 0.18 0.18 85 1012.1
20260906082527 78 114 8.0 14.0 0.00 0.18 0.18 86 1012.1
20260906082028 78 57 8.0 14.0 0.00 0.18 0.18 86 1012.1
20260906081528 78 76 8.0 15.0 0.00 0.18 0.18 85 1012.3
20260906081028 78 89 6.0 15.0 0.00 0.18 0.18 85 1012.1
20260906080528 78 46 6.0 14.0 0.00 0.18 0.18 85 1012.2
20260906080258 78 87 4.0 14.0 0.00 0.18 0.18 85 1012.2
20260906075527 78 102 11.0 15.0 0.00 0.18 0.18 85 1012.4
20260906075028 78 54 7.0 16.0 0.00 0.18 0.18 85 1012.2
20260906074529 78 80 6.0 19.0 0.00 0.18 0.18 85 1012.3
20260906074027 78 96 4.0 19.0 0.00 0.18 0.18 85 1012.5
20260906073527 78 99 6.0 15.0 0.00 0.18 0.18 85 1012.5
20260906073029 78 104 7.0 15.0 0.00 0.18 0.18 85 1012.2
20260906072528 78 100 5.0 15.0 0.00 0.18 0.18 85 1012.0
20260906072029 78 126 5.0 14.0 0.00 0.18 0.18 85 1012.1
20260906071800 78 62 3.0 11.0 0.00 0.18 0.18 85 1012.2
20260906071258 78 102 4.0 11.0 0.00 0.18 0.18 84 1012.1
20260906070528 78 122 6.0 13.0 0.00 0.18 0.18 84 1012.2
20260906070028 78 89 6.0 16.0 0.00 0.18 0.18 84 1012.0
20260906065527 78 106 3.0 16.0 0.00 0.18 0.18 85 1011.9
20260906065027 78 98 8.0 16.0 0.00 0.18 0.18 85 1011.9
20260906064528 78 88 6.0 16.0 0.00 0.18 0.18 85 1011.8
20260906064028 78 103 3.0 13.0 0.00 0.18 0.18 85 1011.9
20260906063759 77 106 6.0 15.0 0.00 0.18 0.18 85 1011.8
20260906063028 77 73 7.0 15.0 0.00 0.18 0.18 85 1011.8
20260906062527 77 67 6.0 17.0 0.00 0.18 0.18 85 1011.8
20260906062028 77 103 11.0 17.0 0.00 0.18 0.18 85 1011.6
20260906061529 77 70 6.0 15.0 0.00 0.18 0.18 86 1011.4
20260906061049 77 101 8.0 15.0 0.00 0.18 0.18 85 1011.3
20260906060527 77 49 4.0 17.0 0.00 0.18 0.18 84 1011.3
20260906060027 77 54 7.0 17.0 0.00 0.18 0.18 83 1011.3
20260906055533 77 105 8.0 14.0 0.00 0.18 0.18 83 1011.1
20260906055527 77 93 9.0 14.0 0.00 0.18 0.18 83 1011.6
20260906054528 77 135 7.0 14.0 0.00 0.18 0.18 83 1011.3
20260906054029 77 115 9.0 14.0 0.00 0.18 0.18 83 1011.4
20260906053527 77 128 7.0 15.0 0.00 0.18 0.18 83 1011.0
20260906053028 77 88 7.0 15.0 0.00 0.18 0.18 82 1011.2
20260906052528 77 94 3.0 15.0 0.00 0.18 0.18 82 1010.7
20260906052027 77 112 6.0 11.0 0.00 0.18 0.18 81 1011.0
20260906051527 77 125 3.0 10.0 0.00 0.18 0.18 81 1010.9
20260906051027 77 128 4.0 15.0 0.00 0.18 0.18 81 1010.8
20260906050527 77 101 8.0 15.0 0.00 0.18 0.18 81 1010.8
20260906050029 77 109 9.0 17.0 0.00 0.18 0.18 83 1011.0
20260906045529 77 102 10.0 17.0 0.00 0.18 0.18 84 1011.1
20260906045027 77 142 5.0 16.0 0.00 0.18 0.18 84 1011.1
20260906044527 77 130 6.0 16.0 0.00 0.18 0.18 84 1011.0
20260906044028 77 125 9.0 14.0 0.00 0.18 0.18 84 1011.0
20260906043527 77 106 11.0 16.0 0.00 0.18 0.18 83 1010.7
20260906043027 77 137 4.0 16.0 0.00 0.18 0.18 83 1010.6
20260906042529 77 91 9.0 13.0 0.00 0.18 0.18 84 1010.6
20260906042258 77 88 5.0 13.0 0.00 0.18 0.18 84 1010.9
20260906041528 77 147 5.0 14.0 0.00 0.18 0.18 84 1010.4
20260906041259 77 129 4.0 14.0 0.00 0.18 0.18 84 1010.6
20260906040528 77 119 6.0 15.0 0.00 0.18 0.18 85 1010.5
20260906040027 77 125 5.0 16.0 0.00 0.18 0.18 85 1010.5
20260906035527 77 92 4.0 16.0 0.00 0.18 0.18 85 1010.6
20260906035028 77 84 6.0 17.0 0.00 0.18 0.18 86 1010.6
20260906034528 77 120 4.0 17.0 0.00 0.18 0.18 85 1010.2
20260906034029 77 98 9.0 16.0 0.00 0.18 0.18 86 1010.3
20260906033529 76 101 6.0 20.0 0.01 0.18 0.18 86 1010.4
20260906033016 76 124 8.0 20.0 0.02 0.18 0.18 87 1010.3
20260906032516 76 98 4.0 20.0 0.02 0.18 0.18 88 1010.3
20260906032022 76 103 5.0 15.0 0.05 0.18 0.18 89 1010.2
20260906032015 76 86 6.0 20.0 0.05 0.18 0.18 89 1010.3
20260906031015 76 50 4.0 17.0 0.05 0.18 0.18 89 1010.3
20260906030515 76 101 6.0 21.0 0.05 0.18 0.18 89 1010.2
20260906030016 76 70 8.0 21.0 0.06 0.18 0.18 89 1010.2
20260906025748 76 99 7.0 16.0 0.06 0.18 0.18 90 1010.2
20260906025246 76 101 6.0 11.0 0.06 0.18 0.18 90 1010.1
20260906024748 75 76 5.0 14.0 0.05 0.17 0.18 90 1010.1
20260906024016 75 81 7.0 15.0 0.05 0.17 0.17 89 1010.3
20260906023515 75 92 10.0 16.0 0.04 0.17 0.17 89 1010.2
20260906023015 75 109 9.0 16.0 0.04 0.16 0.16 89 1010.4
20260906022503 75 169 7.0 11.0 0.03 0.15 0.15 88 1010.5
20260906022003 76 132 6.0 10.0 0.01 0.13 0.14 89 1010.6
20260906021503 76 134 4.0 11.0 0.03 0.13 0.13 88 1010.7
20260906021234 76 88 6.0 16.0 0.07 0.13 0.13 88 1010.8
20260906020504 76 121 5.0 19.0 0.09 0.12 0.12 88 1010.8
20260906020004 76 110 9.0 19.0 0.09 0.12 0.12 87 1010.7
20260906015742 77 103 11.0 20.0 0.09 0.12 0.12 88 1010.5
20260906015223 77 89 11.0 20.0 0.09 0.12 0.12 88 1010.4
20260906014439 77 28 7.0 15.0 0.09 0.12 0.12 89 1010.6
20260906013939 77 65 6.0 13.0 0.09 0.12 0.12 89 1010.4
20260906013444 76 86 0.0 13.0 0.09 0.12 0.12 89 1010.5
20260906012940 76 47 10.0 13.0 0.09 0.12 0.12 89 1010.5
20260906012441 76 130 3.0 13.0 0.09 0.12 0.12 88 1010.5
20260906011940 76 114 4.0 14.0 0.09 0.12 0.12 87 1010.7
20260906011440 77 99 11.0 14.0 0.07 0.10 0.10 86 1010.5
20260906010940 78 132 6.0 14.0 0.01 0.04 0.05 84 1010.7
20260906010440 78 123 4.0 14.0 0.00 0.03 0.03 83 1010.3
20260906005939 78 156 3.0 13.0 0.00 0.03 0.03 81 1010.7
20260906005439 79 102 4.0 13.0 0.00 0.03 0.03 80 1010.7
20260906004940 79 144 9.0 11.0 0.00 0.03 0.03 80 1010.6
20260906004441 79 194 8.0 14.0 0.00 0.03 0.03 80 1010.5
20260906004210 79 129 6.0 14.0 0.00 0.03 0.03 80 1010.6
20260906003441 79 114 5.0 15.0 0.00 0.03 0.03 80 1011.0
20260906002940 79 110 6.0 19.0 0.00 0.03 0.03 80 1010.8
20260906002441 79 112 9.0 19.0 0.00 0.03 0.03 78 1011.1
20260906001939 79 92 12.0 20.0 0.00 0.03 0.03 78 1010.6
20260906001710 80 89 8.0 20.0 0.00 0.03 0.03 77 1010.8
20260906001210 81 107 10.0 17.0 0.00 0.03 0.03 78 1010.8
20260906000441 81 71 10.0 17.0 0.00 0.03 0.03 79 1010.8
20260905235939 81 112 12.0 19.0 0.00 0.03 0.03 79 1011.0
20260905235439 81 52 7.0 20.0 0.00 0.03 0.03 79 1011.1
20260905234940 81 124 13.0 20.0 0.00 0.03 0.03 79 1011.0
20260905234440 81 80 9.0 20.0 0.00 0.03 0.03 79 1011.0
20260905233941 81 105 10.0 20.0 0.00 0.03 0.03 79 1011.1
20260905233445 81 54 10.0 17.0 0.00 0.03 0.03 79 1011.1
20260905233439 81 64 12.0 20.0 0.00 0.03 0.03 77 1011.2
20260905232439 81 85 9.0 21.0 0.00 0.03 0.03 79 1011.2
20260905231940 80 98 5.0 21.0 0.01 0.03 0.03 79 1011.3
20260905231441 80 89 9.0 23.0 0.01 0.03 0.03 80 1011.4
20260905230941 80 70 8.0 23.0 0.01 0.03 0.03 79 1011.4
20260905230439 80 106 11.0 19.0 0.01 0.03 0.03 79 1011.3
20260905230210 80 31 9.0 17.0 0.02 0.03 0.03 80 1011.5
20260905225439 80 93 8.0 17.0 0.02 0.03 0.03 81 1011.6
20260905225210 80 109 9.0 19.0 0.02 0.03 0.03 82 1011.6
20260905224440 80 47 7.0 19.0 0.02 0.03 0.03 82 1011.5
20260905223942 79 69 9.0 15.0 0.02 0.03 0.03 85 1011.4
20260905223447 78 54 6.0 15.0 0.02 0.03 0.03 86 1011.8
20260905223441 79 50 9.0 14.0 0.02 0.03 0.03 88 1011.6
20260905222710 78 75 6.0 19.0 0.02 0.03 0.03 87 1011.9
20260905221940 78 88 9.0 21.0 0.02 0.02 0.02 86 1011.8
20260905221439 78 57 5.0 23.0 0.02 0.02 0.02 86 1012.1
20260905220940 79 75 11.0 23.0 0.02 0.02 0.02 85 1012.0
20260905220440 80 69 4.0 16.0 0.01 0.02 0.02 83 1012.0
20260905220210 81 90 10.0 17.0 0.00 0.01 0.01 81 1012.2
20260905215440 81 45 9.0 19.0 0.00 0.01 0.01 80 1012.1
20260905214939 81 103 13.0 19.0 0.00 0.01 0.01 78 1012.1
20260905214711 81 63 8.0 21.0 0.00 0.01 0.01 78 1012.1
20260905213939 82 39 9.0 21.0 0.00 0.01 0.01 77 1012.3
20260905213441 82 80 9.0 17.0 0.00 0.01 0.01 79 1012.1
20260905212945 81 88 5.0 19.0 0.00 0.01 0.01 78 1012.2